Location: Unspecified
(52.1384°N, 8.6525°W)
Time: 11:20:03
(UTC+00:00)

XW-2F - Pass Details

Date: 20 January 2021
Orbit: 500 x 519 km, 97.5° (Epoch: 24 February)

Event Time Altitude Azimuth Distance (km) Brightness Sun altitude
Rises 06:37:04 0° 16° (NNE) 2,658 ? -17.0°
Reaches altitude 10° 06:39:13 10° 21° (NNE) 1,767 ? -16.7°
Maximum altitude 06:42:58 56° 101° (E) 630 ? -16.1°
Drops below altitude 10° 06:46:42 10° 180° (S) 1,754 ? -15.6°
Sets 06:48:49 0° 185° (S) 2,636 ? -15.2°
